SOYUZ-TMA 12 1 32756U 08015A 08128.54347067 .00017179 00000-0 11135-3 0 363 2 32756 51.6413 225.8681 0006638 178.6243 300.5860 15.76130244 4583 ICO G1 1 32763U 08016A 08124.05026465 -.00000176 00000-0 00000+0 0 185 2 32763 5.9859 327.1717 0003425 70.7387 108.6389 1.00270697 224 ATLAS 5 CENTAUR R/B 1 32764U 08016B 08129.48299235 .00063111 -14617-6 35502-3 0 277 2 32764 22.4451 320.4703 7292338 194.5275 119.9552 2.32341730 544 C/NOFS 1 32765U 08017A 08129.13246671 .00003238 00000-0 12120-3 0 276 2 32765 13.0013 66.3782 0318768 359.0848 0.8851 14.80174023 3189 PEGASUS R/B 1 32766U 08017B 08129.10250889 .00002833 00000-0 97220-4 0 219 2 32766 12.9999 66.0215 0310956 359.3757 0.5958 14.82233217 3180 VINASAT-1 1 32767U 08018A 08129.56555277 -.00000338 00000-0 00000+0 0 214 2 32767 0.0217 4.7322 0001030 103.9303 92.6866 1.00271256 290 STAR ONE C2 1 32768U 08018B 08128.43230253 -.00000271 00000-0 10000-3 0 226 2 32768 0.0804 125.4552 0000220 186.7216 1.1155 1.00274166 313 ARIANE 5 R/B 1 32769U 08018C 08128.06407595 .00001113 00000-0 41473-3 0 156 2 32769 1.9135 8.9580 7269849 183.3965 163.8512 2.28772963 370 ARIANE 5 DEB [SYLDA] 1 32770U 08018D 08129.81102110 .00007724 00000-0 32408-2 0 169 2 32770 2.0510 359.0956 7271206 194.0479 120.8634 2.28327970 357 TIANLIAN I (CTDRS-1) 1 32779U 08019A 08129.80356354 -.00000112 00000-0 10000-3 0 237 2 32779 0.4900 271.6224 0004313 326.4459 355.1838 1.00271489 152 CZ-3C R/B 1 32780U 08019B 08125.72687213 .00050171 49822-6 16562-2 0 156 2 32780 17.9964 83.9300 7600628 185.5568 153.8560 1.92852512 135 GIOVE-B 1 32781U 08020A 08129.14193593 .00000024 00000-0 10000-3 0 144 2 32781 55.9827 203.0954 0023620 217.9036 142.0120 1.70888004 201 FREGAT R/B 1 32782U 08020B 08129.33285838 .00000023 00000-0 10000-3 0 127 2 32782 55.9397 203.0464 0028674 149.7546 210.4888 1.67952705 209 CARTOSAT-2A 1 32783U 08021A 08130.15655265 .00000530 00000-0 79575-4 0 469 2 32783 98.0008 190.1497 0014850 284.4294 75.5277 14.78582678 1620 NTS (CANX-6) 1 32784U 08021B 08129.81030433 .00000164 00000-0 28095-4 0 414 2 32784 97.9982 189.8161 0014679 258.6536 101.3023 14.80932671 1570 CANX-2 1 32785U 08021C 08129.80730301 -.00000740 00000-0 -87772-4 0 436 2 32785 97.9931 189.8152 0013670 272.4296 87.5368 14.81346319 1578 IMS-1 1 32786U 08021D 08129.81373600 .00000295 00000-0 45951-4 0 428 2 32786 97.9960 189.8115 0011661 259.2226 100.7667 14.80105232 1570 COMPASS-1 1 32787U 08021E 08130.21222687 .00000255 00000-0 39494-4 0 356 2 32787 97.9924 190.2128 0014521 264.9333 95.0219 14.81400351 1638 AAUSAT-II 1 32788U 08021F 08130.21143534 .00004688 00000-0 60340-3 0 357 2 32788 97.9932 190.2134 0013974 266.2820 93.6733 14.81520909 1639 DELFI-C3 1 32789U 08021G 08129.80718363 -.00001680 00000-0 -20780-3 0 422 2 32789 97.9944 189.8134 0014320 264.0069 95.9516 14.81367284 1576 CUTE-1.7+APD II 1 32790U 08021H 08130.14396775 .00004154 00000-0 53544-3 0 344 2 32790 97.9940 190.1541 0013627 263.1907 96.7756 14.81528502 1602 SEEDS II 1 32791U 08021J 08129.74039461 .00000253 00000-0 39343-4 0 321 2 32791 97.9942 189.7447 0014878 263.7386 96.2131 14.81262212 1537 RUBIN-8 & PSLV R/B 1 32792U 08021K 08130.18192386 .00001363 00000-0 20214-3 0 226 2 32792 97.9221 189.8770 0029421 197.7645 162.2404 14.76418274 1411 AMOS 3 1 32794U 08022A 08127.07353898 -.00000142 00000-0 10000-3 0 137 2 32794 0.7162 117.9101 0202104 207.7358 305.0890 0.97332197 101